This demonstration page uses our WeatherBlox Daily Observations layout. Learn more.

Left ArrowRight Arrow

34.16533, -84.80231

Hourly Observations for March 11, 2020

Temp ( °F °C ) Dew Point ( °F °C ) Humidity (%) Winds ( mph kmh ) Pressure ( in mb ) Visibility ( mi km ) Precip ( " mm )
12:53 am 00:53 Cloudy 54 12.2 52 11.1 93 93 Calm 30.20 1023 10 16 0.00 0.00
1:53 am 01:53 Cloudy 55 12.8 53 11.7 93 93 Calm 30.18 1022 9 14 0.00 0.00
2:40 am 02:40 Mostly Clear with Mist and Fog 53 11.7 51 10.6 93 93 Calm 30.20 1023 2 3 0.00 0.00
2:49 am 02:49 Partly Cloudy with Mist and Fog 52 11 52 11 100 100 Calm 30.21 1023 3 4 0.00 0.00
2:53 am 02:53 Partly Cloudy with Mist and Fog 51 10.6 50 10 96 96 Calm 30.18 1022 3 5 0.00 0.00
3:19 am 03:19 Mostly Cloudy with Mist and Fog 51 10.6 50 10 96 96 Calm 30.20 1023 4 6 0.00 0.00
3:53 am 03:53 Partly Cloudy with Mist and Fog 51 10.6 49 9.4 92 92 Calm 30.15 1021 4 6 0.00 0.00
4:00 am 04:00 Mostly Cloudy with Mist and Fog 51 10.6 49 9.4 92 92 Calm 30.18 1022 4 6 0.00 0.00
4:17 am 04:17 Cloudy with Mist and Fog 50 10 48 8.9 93 93 Calm 30.18 1022 2 2 0.00 0.00
4:26 am 04:26 Cloudy with Fog 52 11.1 50 10 93 93 Calm 30.18 1022 1 1 0.00 0.00
4:34 am 04:34 Cloudy with Mist and Fog 52 11.1 50 10 93 93 Calm 30.17 1022 3 4 0.00 0.00
4:41 am 04:41 Cloudy 52 11.1 50 10 93 93 SSE 3 6 30.17 1022 7 11 0.00 0.00
4:53 am 04:53 Cloudy 53 11.7 51 10.6 93 93 Calm 30.13 1020 8 13 0.00 0.00
5:53 am 05:53 Cloudy with Light Rain 54 12.2 53 11.7 97 97 Calm 30.14 1021 5 8 0.03 0.76
6:11 am 06:11 Cloudy with Heavy Rain 55 12.8 53 11.7 93 93 Calm 30.17 1022 3 4 0.05 1.27
6:15 am 06:15 Cloudy with Heavy Rain 55 12.8 53 11.7 93 93 Calm 30.17 1022 2 3 0.09 2.29
6:23 am 06:23 Cloudy with Light Rain 55 12.8 54 12.2 96 96 Calm 30.17 1022 3 5 0.11 2.79
6:53 am 06:53 Cloudy 56 13.3 54 12.2 93 93 Calm 30.14 1021 10 16 0.11 2.79
7:46 am 07:46 Cloudy 56 13.3 53 11.7 90 90 Calm 30.16 1021 7 11 0.00 0.00
7:53 am 07:53 Cloudy 55 12.8 53 11.7 93 93 Calm 30.14 1021 7 11 0.00 0.00
8:11 am 08:11 Cloudy with Mist and Fog 55 12.8 53 11.7 93 93 Calm 30.16 1021 2 3 0.00 0.00
8:24 am 08:24 Cloudy with Mist and Fog 55 12.8 53 11.7 93 93 Calm 30.16 1021 3 5 0.00 0.00
8:46 am 08:46 Cloudy 57 13.9 55 12.8 93 93 Calm 30.16 1021 7 11 0.00 0.00
8:53 am 08:53 Cloudy 57 13.9 55 12.8 93 93 Calm 30.14 1021 8 13 0.00 0.00
9:53 am 09:53 Cloudy 62 16.7 59 15 90 90 Calm 30.13 1020 9 14 0.00 0.00
10:53 am 10:53 Mostly Cloudy 66 18.9 58 14.4 75 75 VRB 3 6 30.13 1020 10 16 0.00 0.00
11:22 am 11:22 Partly Cloudy 67 19.4 58 14.4 73 73 Calm 30.12 1020 10 16 0.00 0.00
11:53 am 11:53 Mostly Cloudy 69 20.6 58 14.4 68 68 VRB 5 7 30.11 1020 10 16 0.00 0.00
12:06 pm 12:06 Mostly Cloudy 69 20.6 58 14.4 68 68 Calm 30.12 1020 10 16 0.00 0.00
12:53 pm 12:53 Mostly Sunny 72 22.2 58 14.4 61 61 VRB 3 6 30.12 1020 10 16 0.00 0.00
1:53 pm 13:53 Mostly Sunny 72 22.2 58 14.4 61 61 VRB 6 9 30.11 1020 10 16 0.00 0.00
2:53 pm 14:53 Mostly Sunny 71 21.7 55 12.8 57 57 VRB 3 6 30.09 1019 10 16 0.00 0.00
3:53 pm 15:53 Sunny 72 22.2 55 12.8 55 55 VRB 3 6 30.05 1018 10 16 0.00 0.00
4:53 pm 16:53 Sunny 71 21.7 54 12.2 55 55 Calm 30.02 1017 10 16 0.00 0.00
5:53 pm 17:53 Partly Cloudy 70 21.1 54 12.2 57 57 Calm 30.00 1016 10 16 0.00 0.00
6:53 pm 18:53 Mostly Cloudy 69 20.6 54 12.2 59 59 VRB 6 9 29.96 1015 10 16 0.00 0.00
7:53 pm 19:53 Cloudy 67 19.4 56 13.3 68 68 VRB 3 6 29.99 1016 10 16 0.00 0.00
8:53 pm 20:53 Cloudy 64 17.8 57 13.9 78 78 Calm 30.00 1016 10 16 0.00 0.00
9:53 pm 21:53 Cloudy 62 16.7 57 13.9 84 84 Calm 30.01 1016 10 16 0.00 0.00
10:53 pm 22:53 Mostly Cloudy 60 15.6 56 13.3 86 86 Calm 30.02 1017 10 16 0.00 0.00
11:41 pm 23:41 Cloudy 59 15 56 13.3 90 90 Calm 30.05 1017 10 16 0.00 0.00
11:53 pm 23:53 Cloudy 59 15 56 13.3 90 90 Calm 30.02 1017 10 16 0.00 0.00

Powered by AerisWeather